| time (UTC) | temp F | wind direction | speed MPH | gust MPH | rain 1hr in | rain 24hr in | rain mn in | humidity % | barometer mb |
| 20260504081537 | 52 | 196 | 2.0 | 6.0 | 0.00 | 0.00 | 0.00 | 71 | 1004.9 |
| 20260504044537 | 59 | 226 | 2.0 | 4.0 | 0.00 | 0.00 | 0.00 | 55 | 1006.8 |
| 20260504043043 | 60 | 192 | 2.0 | 4.0 | 0.00 | 0.00 | 0.00 | 55 | 1006.9 |
| 20260504041535 | 60 | 188 | 2.0 | 4.0 | 0.00 | 0.00 | 0.00 | 54 | 1006.9 |
| 20260504040035 | 61 | 196 | 1.0 | 5.0 | 0.00 | 0.00 | 0.00 | 53 | 1006.9 |
| 20260504034536 | 62 | 195 | 2.0 | 6.0 | 0.00 | 0.00 | 0.00 | 53 | 1006.9 |
| 20260504033039 | 62 | 173 | 3.0 | 6.0 | 0.00 | 0.00 | 0.00 | 52 | 1006.9 |
| 20260504031532 | 63 | 198 | 3.0 | 6.0 | 0.00 | 0.00 | 0.00 | 50 | 1007.0 |
| 20260504030042 | 63 | 205 | 4.0 | 8.0 | 0.00 | 0.00 | 0.00 | 50 | 1007.0 |
| 20260504024533 | 64 | 164 | 5.0 | 12.0 | 0.00 | 0.00 | 0.00 | 49 | 1006.9 |
| 20260504023034 | 65 | 184 | 5.0 | 10.0 | 0.00 | 0.00 | 0.00 | 49 | 1006.7 |
| 20260504021535 | 65 | 170 | 4.0 | 8.0 | 0.00 | 0.00 | 0.00 | 48 | 1006.6 |
| 20260504020040 | 66 | 175 | 4.0 | 9.0 | 0.00 | 0.00 | 0.00 | 47 | 1006.4 |
| 20260504014537 | 67 | 184 | 4.0 | 10.0 | 0.00 | 0.00 | 0.00 | 46 | 1006.4 |
| 20260504013031 | 67 | 198 | 6.0 | 11.0 | 0.00 | 0.00 | 0.00 | 45 | 1006.2 |
| 20260504011532 | 68 | 194 | 4.0 | 9.0 | 0.00 | 0.00 | 0.00 | 44 | 1006.1 |
| 20260504010032 | 69 | 188 | 3.0 | 14.0 | 0.00 | 0.00 | 0.00 | 44 | 1006.0 |
| 20260504004534 | 69 | 175 | 5.0 | 11.0 | 0.00 | 0.00 | 0.00 | 44 | 1005.9 |
| 20260504003033 | 70 | 181 | 6.0 | 13.0 | 0.00 | 0.00 | 0.00 | 43 | 1005.8 |
| 20260504001535 | 70 | 155 | 7.0 | 18.0 | 0.00 | 0.00 | 0.00 | 43 | 1005.9 |
| 20260504000031 | 70 | 198 | 7.0 | 20.0 | 0.00 | 0.00 | 0.00 | 44 | 1005.7 |
| 20260503234531 | 71 | 178 | 6.0 | 18.0 | 0.00 | 0.00 | 0.00 | 44 | 1005.7 |
| 20260503233032 | 71 | 160 | 9.0 | 20.0 | 0.00 | 0.00 | 0.00 | 42 | 1005.9 |
| 20260503231537 | 71 | 202 | 9.0 | 21.0 | 0.00 | 0.00 | 0.00 | 43 | 1006.0 |
| 20260503230033 | 71 | 174 | 9.0 | 18.0 | 0.00 | 0.00 | 0.00 | 44 | 1006.0 |
| 20260503224539 | 71 | 199 | 12.0 | 29.0 | 0.00 | 0.00 | 0.00 | 42 | 1006.0 |
| 20260503223036 | 72 | 197 | 10.0 | 22.0 | 0.00 | 0.00 | 0.00 | 42 | 1006.2 |
| 20260503221536 | 72 | 165 | 12.0 | 24.0 | 0.00 | 0.00 | 0.00 | 41 | 1005.8 |
| 20260503220039 | 72 | 166 | 10.0 | 24.0 | 0.00 | 0.00 | 0.00 | 40 | 1006.0 |
| 20260503214540 | 71 | 146 | 15.0 | 29.0 | 0.00 | 0.00 | 0.00 | 41 | 1005.9 |
| 20260503213032 | 72 | 178 | 11.0 | 21.0 | 0.00 | 0.00 | 0.00 | 40 | 1006.1 |
| 20260503211541 | 72 | 185 | 11.0 | 21.0 | 0.00 | 0.00 | 0.00 | 40 | 1006.2 |
| 20260503210036 | 72 | 134 | 10.0 | 23.0 | 0.00 | 0.00 | 0.00 | 40 | 1006.3 |
| 20260503204537 | 71 | 206 | 11.0 | 23.0 | 0.00 | 0.00 | 0.00 | 40 | 1006.8 |
| 20260503203044 | 71 | 191 | 8.0 | 20.0 | 0.00 | 0.00 | 0.00 | 40 | 1006.8 |
| 20260503201534 | 70 | 185 | 11.0 | 26.0 | 0.00 | 0.00 | 0.00 | 42 | 1006.9 |
| 20260503200046 | 70 | 162 | 10.0 | 19.0 | 0.00 | 0.00 | 0.00 | 42 | 1007.1 |
| 20260503194532 | 69 | 207 | 15.0 | 21.0 | 0.00 | 0.00 | 0.00 | 42 | 1007.3 |
| 20260503193036 | 69 | 147 | 14.0 | 25.0 | 0.00 | 0.00 | 0.00 | 42 | 1007.7 |
| 20260503191542 | 69 | 196 | 13.0 | 24.0 | 0.00 | 0.00 | 0.00 | 42 | 1007.7 |
| 20260503190034 | 68 | 194 | 13.0 | 24.0 | 0.00 | 0.00 | 0.00 | 44 | 1007.9 |
| 20260503184541 | 68 | 172 | 11.0 | 25.0 | 0.00 | 0.00 | 0.00 | 45 | 1007.9 |
| 20260503183040 | 67 | 182 | 11.0 | 23.0 | 0.00 | 0.00 | 0.00 | 45 | 1008.0 |
| 20260503181531 | 65 | 176 | 13.0 | 31.0 | 0.00 | 0.00 | 0.00 | 45 | 1008.2 |
| 20260503180047 | 65 | 160 | 16.0 | 31.0 | 0.00 | 0.00 | 0.00 | 46 | 1008.5 |
| 20260503174545 | 64 | 160 | 17.0 | 29.0 | 0.00 | 0.00 | 0.00 | 46 | 1008.8 |
| 20260503173043 | 64 | 190 | 14.0 | 32.0 | 0.00 | 0.00 | 0.00 | 46 | 1009.2 |
| 20260503171534 | 63 | 206 | 15.0 | 36.0 | 0.00 | 0.00 | 0.00 | 46 | 1009.2 |